User: anonymous   Login
Location: Kalberh�ni
(46.4610°N, 7.2453°E)
Time: 16:09:03
(UTC+00:00)
Language:

Cosmos 1300 - Orbit

View from above orbital plane
View from above orbital plane
View from above satellite
View from above satellite

Ground track
Ground track

The orbit data is extracted from the following two-line orbital elements,

1 12785U 81082A   21259.19608778  .00000725  00000-0  33870-4 0  9996
2 12785  82.5054 337.1933 0000670 132.6352 287.2707 15.18232042187213
Epoch (UTC): 16 September 2021 04:42:21
Eccentricity: 0.0000670
inclination: 82.5054°
perigee height: 511 km
apogee height: 511 km
right ascension of ascending node: 337.1933°
argument of perigee: 132.6352°
revolutions per day: 15.18232042
mean anomaly at epoch: 287.2707°
orbit number at epoch: 18721

The dashed part of the orbit path shows where the satellite is in the earth's shadow,  

DLR